Vertical_Velocity
-1 -0 -1 -2 -4 -0 -4 -4 -2 -2 -2 -1 -2 -1 -0 1 1 0 1 2 -0 -2
-1 -1 -3 -3 -3 -2 -3 -0 -1 -2 0 -1 2 -1 -1 1 2 -0 -0 0 1 -2
-1 -3 -2 -2 -2 -2 -2 -3 -3 -3 -4 -2 -1 1 0 2 2 1 3 -0 2 2
-1 -1 -2 -3 -2 -3 -4 -7 -4 -5 -1 -3 -2 -1 -1 1 -0 1 2 0 2 4
1 -2 -2 -0 -2 -5 -4 -4 -4 -1 -3 -2 -2 -1 -1 -0 -2 1 1 0 -0 2
-2 -2 -0 -1 -4 -3 -3 -4 -3 -2 -5 -3 -3 -1 -3 -1 -0 -1 -1 -1 -2 -1
-2 -1 -2 -2 -2 -2 -5 -5 -4 -1 -5 -6 -2 -3 -2 -2 -2 -1 -1 -2 -2 -1
-1 -2 -2 -2 -2 -2 -8 -6 -6 1 -4 -6 -3 -6 -2 -1 -2 -2 -1 -2 -2 -1
-1 -1 -1 -2 -0 -2 -6 -5 -7 1 -3 -7 -2 -4 -3 -1 -1 -1 -0 -0 -0 -2
-0 -1 -2 -3 -2 0 -4 -4 -8 -1 -1 -6 -4 -6 -3 -2 -1 -0 -0 -0 -1 0
-1 -1 -3 -3 -3 2 -5 -4 -10 -4 1 -4 -2 -5 0 -4 -1 -1 -1 -1 -0 -0
-1 -1 -4 -2 1 0 3 -3 -4 -13 -1 2 -3 -1 0 -2 -2 -0 -0 -1 0 1
-3 -2 -2 -4 -0 3 0 -2 -4 -10 -7 1 1 -1 -2 -2 -2 -3 -1 -1 0 1
-4 -3 -3 -3 -2 4 5 2 -2 -5 -11 -6 -1 2 1 -2 -1 -2 -4 -1 -1 -0
Height
5640 5633 5625 5617 5608 5598 5586 5573 5559 5544 5527 5509 5489 5470 5451 5437 5425 5415 5408 5403 5400 5400
5628 5620 5612 5604 5594 5582 5569 5556 5542 5525 5508 5488 5468 5446 5429 5415 5402 5391 5384 5380 5380 5382
5616 5608 5600 5591 5579 5567 5554 5540 5524 5508 5488 5468 5446 5424 5407 5391 5377 5367 5361 5357 5360 5364
5605 5597 5587 5576 5565 5552 5538 5523 5507 5488 5470 5447 5425 5404 5386 5369 5356 5348 5343 5340 5343 5349
5594 5585 5574 5562 5549 5536 5523 5506 5489 5471 5450 5428 5406 5386 5367 5353 5340 5332 5328 5327 5329 5337
5581 5571 5560 5548 5535 5522 5508 5491 5473 5453 5432 5411 5390 5371 5354 5341 5329 5321 5317 5316 5319 5327
5569 5558 5546 5534 5522 5508 5493 5477 5458 5436 5416 5397 5379 5361 5347 5334 5323 5314 5310 5308 5312 5320
5556 5545 5534 5522 5509 5494 5478 5461 5443 5424 5405 5387 5371 5357 5344 5332 5321 5312 5306 5305 5309 5316
5543 5533 5522 5510 5496 5480 5464 5446 5430 5412 5396 5379 5366 5355 5342 5333 5322 5313 5308 5306 5309 5315
5532 5522 5510 5498 5484 5468 5451 5433 5418 5404 5389 5372 5362 5353 5342 5333 5325 5316 5311 5308 5310 5315
5520 5509 5498 5486 5473 5457 5437 5422 5408 5396 5382 5368 5360 5351 5343 5334 5326 5319 5313 5311 5312 5315
5508 5497 5486 5475 5461 5445 5428 5413 5398 5386 5376 5366 5357 5350 5342 5334 5326 5320 5315 5312 5312 5314
5496 5486 5475 5464 5450 5435 5419 5405 5391 5377 5367 5362 5355 5347 5340 5333 5327 5321 5316 5312 5311 5311
5484 5474 5464 5451 5438 5425 5411 5398 5386 5372 5361 5356 5351 5345 5339 5332 5327 5321 5316 5312 5310 5309